E24CR-1 Weather Reports


time (UTC)temp
C
wind
direction
speed
KPH
gust
KPH
rain 1hr
cm
rain 24hr
cm
rain mn
cm
humidity
%
barometer
mb
20260505000449 25 0 0.0 0.0 0.00 0.00 0.00 82 954.0
20260504235424 25 0 0.0 0.0 0.00 0.00 0.00 82 954.0
20260504234400 25 0 0.0 0.0 0.00 0.00 0.00 79 954.0
20260504233336 25 0 0.0 0.0 0.00 0.00 0.00 79 954.0
20260504232312 25 0 0.0 0.0 0.00 0.00 0.00 81 954.0
20260504231248 25 0 0.0 0.0 0.00 0.00 0.00 82 953.0
20260504230224 24 0 0.0 0.0 0.00 0.00 0.00 84 953.0
20260504225202 24 0 0.0 0.0 0.00 0.00 0.00 86 953.0
20260504224136 24 0 0.0 0.0 0.00 0.00 0.00 84 953.0
20260504223111 24 0 0.0 0.0 0.00 0.00 0.00 82 953.0
20260504222037 25 0 0.0 0.0 0.00 0.00 0.00 79 952.0
20260504221013 25 0 0.0 0.0 0.00 0.00 0.00 78 953.0
20260504215949 25 0 0.0 0.0 0.00 0.00 0.00 78 953.0
20260504214925 25 0 0.0 0.0 0.00 0.00 0.00 75 952.0
20260504213900 25 0 0.0 0.0 0.00 0.00 0.00 78 952.0
20260504212836 25 0 0.0 0.0 0.00 0.00 0.00 79 952.0
20260504211812 24 0 0.0 0.0 0.00 0.00 0.00 81 952.0
20260504210748 24 0 0.0 0.0 0.00 0.00 0.00 84 953.0
20260504205724 24 0 0.0 0.0 0.00 0.00 0.00 79 953.0
20260504204659 25 0 0.0 0.0 0.00 0.00 0.00 74 952.0
20260504203635 25 0 0.0 0.0 0.00 0.00 0.00 79 953.0
20260504202611 25 0 0.0 0.0 0.00 0.00 0.00 78 953.0
20260504201547 25 0 0.0 0.0 0.00 0.00 0.00 79 953.0
20260504200523 24 0 0.0 0.0 0.00 0.00 0.00 77 953.0
20260504195459 24 0 0.0 0.0 0.00 0.00 0.00 77 953.0
20260504194435 24 0 0.0 0.0 0.00 0.00 0.00 79 953.0
20260504193411 25 0 0.0 0.0 0.00 0.00 0.00 79 953.0
20260504192346 25 0 0.0 0.0 0.00 0.00 0.00 79 953.0
20260504191322 24 0 0.0 0.0 0.00 0.00 0.00 82 953.0
20260504190258 25 0 0.0 0.0 0.00 0.00 0.00 82 953.0
20260504185235 24 0 0.0 0.0 0.00 0.00 0.00 87 954.0
20260504184210 24 0 0.0 0.0 0.00 0.00 0.00 89 954.0
20260504183146 25 0 0.0 0.0 0.00 0.00 0.00 85 953.0
20260504182122 25 0 0.0 0.0 0.00 0.00 0.00 85 954.0
20260504181058 25 0 0.0 0.0 0.00 0.00 0.00 80 954.0
20260504180033 25 0 0.0 0.0 0.00 0.00 0.00 76 954.0
20260504175009 26 0 0.0 0.0 0.00 0.00 0.00 71 954.0
20260504173945 26 0 0.0 0.0 0.00 0.00 0.00 69 954.0
20260504172921 27 0 0.0 0.0 0.00 0.00 0.00 64 954.0
20260504171857 27 0 0.0 0.0 0.00 0.00 0.00 62 954.0
20260504170833 27 0 0.0 0.0 0.00 0.00 0.00 60 954.0
20260504150341 30 0 0.0 0.0 0.00 0.00 0.00 46 952.0
20260504141139 31 0 0.0 0.0 0.00 0.00 0.00 43 951.0
20260504140116 31 0 0.0 0.0 0.00 0.00 0.00 43 951.0
20260504110422 35 0 0.0 0.0 0.00 0.00 0.00 32 948.0
20260504100157 37 0 0.0 0.0 0.00 0.00 0.00 27 948.0
20260504081755 40 0 0.0 0.0 0.00 0.00 0.00 25 949.0
20260504080731 38 0 0.0 0.0 0.00 0.00 0.00 26 949.0
20260504060240 38 0 0.0 0.0 0.00 0.00 0.00 27 951.0
20260504050015 38 0 0.0 0.0 0.00 0.00 0.00 29 952.0
20260504044951 37 0 0.0 0.0 0.00 0.00 0.00 31 953.0
20260504043926 37 0 0.0 0.0 0.00 0.00 0.00 32 953.0
20260504042902 38 0 0.0 0.0 0.00 0.00 0.00 32 953.0
20260504041838 37 0 0.0 0.0 0.00 0.00 0.00 33 953.0
20260504040814 36 0 0.0 0.0 0.00 0.00 0.00 34 953.0
20260504035749 36 0 0.0 0.0 0.00 0.00 0.00 35 953.0
20260504034724 37 0 0.0 0.0 0.00 0.00 0.00 33 953.0
20260504033700 36 0 0.0 0.0 0.00 0.00 0.00 35 953.0
20260504032636 36 0 0.0 0.0 0.00 0.00 0.00 35 953.0
20260504031612 34 0 0.0 0.0 0.00 0.00 0.00 40 953.0
20260504030548 33 0 0.0 0.0 0.00 0.00 0.00 41 953.0
20260504025523 33 0 0.0 0.0 0.00 0.00 0.00 38 953.0
20260504024459 33 0 0.0 0.0 0.00 0.00 0.00 42 953.0
20260504023435 33 0 0.0 0.0 0.00 0.00 0.00 42 954.0
20260504022411 33 0 0.0 0.0 0.00 0.00 0.00 39 954.0
20260504021347 33 0 0.0 0.0 0.00 0.00 0.00 42 954.0
20260504020323 33 0 0.0 0.0 0.00 0.00 0.00 43 953.0
20260504015259 33 0 0.0 0.0 0.00 0.00 0.00 44 953.0
20260504014235 32 0 0.0 0.0 0.00 0.00 0.00 47 953.0
20260504013210 31 0 0.0 0.0 0.00 0.00 0.00 48 953.0
20260504012146 31 0 0.0 0.0 0.00 0.00 0.00 46 953.0
20260504011122 30 0 0.0 0.0 0.00 0.00 0.00 47 953.0
20260504010058 29 0 0.0 0.0 0.00 0.00 0.00 51 953.0
20260504005034 28 0 0.0 0.0 0.00 0.00 0.00 52 953.0
20260504004010 28 0 0.0 0.0 0.00 0.00 0.00 54 953.0
20260504002946 27 0 0.0 0.0 0.00 0.00 0.00 55 953.0
20260504001922 27 0 0.0 0.0 0.00 0.00 0.00 55 953.0
20260504000857 27 0 0.0 0.0 0.00 0.00 0.00 56 953.0